FENGYUN 1C DEB, 35105

Orbit data source: Space-Track

FENGYUN 1C DEB, 35105 is space debris in SSO originally from a launch on Mon, 10 May 1999 UTC launched from the Taiyaun Space Center, China (TSC). Fengyun 1C debris stems from the Chinese weather satellite Fengyun-1C, which was intentionally destroyed by a Chinese anti-satellite missile in 2007. This event dramatically increased the amount of space debris, with thousands of trackable fragments posing hazards to satellites and human spaceflight. The Fengyun 1C debris cloud has become a focal point in discussions about space sustainability and the need for international regulations to prevent the creation of new debris.

Loading next visibility...
Identifier
35105, 1999-025DKH
Orbit
SSO
Country
Flag of CNCN / PRC
Related business
Manufacturer
Unknown
Mission
Spacecraft
Bus & Motor
Unknown
Mass
Unknown
Launch date (UTC)
1999-05-10 (27 years ago)
Launch vehicle
Unknown
Launch site
Taiyaun Space Center, China (TSC)
Object type
Payload
Rocket body
Debris
Shape & HBR
Unknown shape, 0.1 m
Radar Cross Section
Small (<0.1 m²)

Expand to show TLE details & history
Last TLE update: 3 days ago

TLE from 3 days ago
0 FENGYUN 1C DEB
1 35105U 99025DKH 26251.23014841  .00000669  00000-0  18873-3 0  9999
2 35105  98.9636 252.2043 0110314 330.8732  28.6334 14.45989122983877
Epoch: 2026-09-08T05:31Z
TLE epoch observation values (Epoch: 2026-09-08T05:31:24.822Z)
Latitude
0.00004°
Longitude
-177.94868°
Altitude
673.001 km
Speed
7.557 km/s
True Right ascension
16h 48m 49s
True Declination
0° 00' 00"
Sunlit
Object was in daylight at epoch
Visualization orbit readout
Latitude
Unknown
Longitude
Unknown
Altitude
Unknown
Speed
Unknown
Apparent Right ascension
Unknown
Apparent Declination
Unknown
Sunlit
N/A
Visualization observer readout
Local Sidereal Time
06:49:00
Azimuth
Unknown
Elevation
Unknown
Doppler factor
Unknown
Orbital elements
Apogee altitude
814.393 km
Perigee altitude
657.437 km
Semi-major axis
7,114.052 km
Eccentricity
0.01103
Inclination
98.9636°
RAAN
252.2043°
Arg. of periapsis
330.8732°
True anomaly
29.24657°
Mean anomaly
28.6334°
Eccentric anomaly
28.93924°
Mean motion
3.61716 °/min
Orbital period
99.53 mins
BSTAR
0.00018873
Loading maneuver chart data...
Computing Atmospheric mass density...
Loading historical data...
Loading historical data...
Loading historical data...
Loading historical data...
Loading historical data...
Loading historical data...
Loading historical data...

Documentation

Showing up to 5 results
|